| time (UTC) | temp C | wind direction | speed KPH | gust KPH | rain 1hr cm | rain 24hr cm | rain mn cm | humidity % | barometer mb |
| 20260507063104 | 12 | 157 | 0.0 | 3.2 | 0.00 | 0.00 | 0.00 | 94 | 1019.5 |
| 20260507062600 | 12 | 269 | 6.4 | 14.5 | 0.00 | 0.00 | 0.00 | 94 | 1019.6 |
| 20260507062058 | 12 | 171 | 0.0 | 1.6 | 0.00 | 0.00 | 0.00 | 94 | 1019.6 |
| 20260507061556 | 12 | 192 | 1.6 | 6.4 | 0.00 | 0.00 | 0.00 | 94 | 1019.2 |
| 20260507061053 | 12 | 192 | 1.6 | 3.2 | 0.00 | 0.00 | 0.00 | 94 | 1019.3 |
| 20260507060546 | 12 | 216 | 1.6 | 3.2 | 0.00 | 0.00 | 0.00 | 93 | 1019.2 |
| 20260507060042 | 12 | 213 | 3.2 | 9.7 | 0.00 | 0.00 | 0.00 | 93 | 1019.0 |
| 20260507055542 | 12 | 116 | 1.6 | 3.2 | 0.00 | 0.00 | 0.00 | 93 | 1019.1 |
| 20260507055039 | 12 | 202 | 6.4 | 12.9 | 0.00 | 0.00 | 0.00 | 93 | 1019.0 |
| 20260507054535 | 12 | 192 | 1.6 | 11.3 | 0.00 | 0.00 | 0.00 | 93 | 1019.2 |
| 20260507054032 | 12 | 196 | 1.6 | 11.3 | 0.00 | 0.00 | 0.00 | 93 | 1019.1 |
| 20260507053530 | 12 | 204 | 3.2 | 4.8 | 0.00 | 0.00 | 0.00 | 93 | 1019.0 |
| 20260507053029 | 12 | 175 | 4.8 | 9.7 | 0.00 | 0.00 | 0.00 | 93 | 1019.2 |
| 20260507052526 | 12 | 196 | 4.8 | 9.7 | 0.00 | 0.00 | 0.00 | 93 | 1019.1 |
| 20260507052022 | 12 | 245 | 3.2 | 11.3 | 0.00 | 0.00 | 0.00 | 93 | 1019.4 |
| 20260507051520 | 12 | 285 | 6.4 | 6.4 | 0.00 | 0.00 | 0.00 | 93 | 1019.1 |
| 20260507051017 | 12 | 205 | 1.6 | 11.3 | 0.00 | 0.00 | 0.00 | 93 | 1019.1 |
| 20260507050513 | 12 | 172 | 6.4 | 11.3 | 0.00 | 0.00 | 0.00 | 93 | 1019.1 |
| 20260507050010 | 12 | 159 | 6.4 | 12.9 | 0.00 | 0.00 | 0.00 | 93 | 1019.2 |
| 20260507045507 | 12 | 234 | 4.8 | 11.3 | 0.00 | 0.00 | 0.00 | 93 | 1019.1 |
| 20260507045004 | 12 | 281 | 6.4 | 11.3 | 0.00 | 0.00 | 0.00 | 93 | 1019.2 |
| 20260507044501 | 12 | 317 | 8.0 | 12.9 | 0.00 | 0.00 | 0.00 | 92 | 1019.1 |
| 20260507043957 | 12 | 190 | 3.2 | 11.3 | 0.00 | 0.00 | 0.00 | 92 | 1018.9 |
| 20260507043453 | 12 | 162 | 6.4 | 9.7 | 0.00 | 0.00 | 0.00 | 92 | 1019.0 |
| 20260507042949 | 12 | 223 | 6.4 | 9.7 | 0.00 | 0.00 | 0.00 | 92 | 1019.1 |
| 20260507042446 | 12 | 258 | 6.4 | 12.9 | 0.00 | 0.00 | 0.00 | 92 | 1018.8 |
| 20260507041942 | 12 | 165 | 3.2 | 6.4 | 0.00 | 0.00 | 0.00 | 92 | 1019.0 |
| 20260507041439 | 12 | 220 | 6.4 | 9.7 | 0.00 | 0.00 | 0.00 | 92 | 1018.8 |
| 20260507040936 | 12 | 220 | 8.0 | 11.3 | 0.00 | 0.00 | 0.00 | 92 | 1018.8 |
| 20260507040432 | 12 | 175 | 6.4 | 9.7 | 0.00 | 0.00 | 0.00 | 92 | 1018.7 |
| 20260507035928 | 12 | 239 | 4.8 | 9.7 | 0.00 | 0.00 | 0.00 | 92 | 1018.7 |
| 20260507035425 | 12 | 159 | 3.2 | 11.3 | 0.00 | 0.00 | 0.00 | 92 | 1018.6 |
| 20260507034922 | 12 | 244 | 1.6 | 6.4 | 0.00 | 0.00 | 0.00 | 91 | 1018.7 |
| 20260507034419 | 12 | 240 | 6.4 | 11.3 | 0.00 | 0.00 | 0.00 | 91 | 1018.7 |
| 20260507033917 | 12 | 196 | 3.2 | 11.3 | 0.00 | 0.00 | 0.00 | 91 | 1018.4 |
| 20260507033414 | 12 | 218 | 4.8 | 9.7 | 0.00 | 0.00 | 0.00 | 91 | 1018.2 |
| 20260507032911 | 12 | 235 | 3.2 | 11.3 | 0.00 | 0.00 | 0.00 | 91 | 1018.5 |
| 20260507032408 | 12 | 248 | 3.2 | 14.5 | 0.00 | 0.00 | 0.00 | 91 | 1018.6 |
| 20260507031904 | 12 | 198 | 6.4 | 14.5 | 0.00 | 0.00 | 0.00 | 90 | 1018.6 |
| 20260507031401 | 12 | 198 | 4.8 | 11.3 | 0.00 | 0.00 | 0.00 | 90 | 1018.4 |
| 20260507030857 | 12 | 197 | 3.2 | 11.3 | 0.00 | 0.00 | 0.00 | 90 | 1018.4 |
| 20260507030355 | 13 | 302 | 4.8 | 11.3 | 0.00 | 0.00 | 0.00 | 90 | 1018.6 |
| 20260507025851 | 13 | 277 | 3.2 | 14.5 | 0.00 | 0.00 | 0.00 | 90 | 1018.5 |
| 20260507025349 | 13 | 284 | 4.8 | 9.7 | 0.00 | 0.00 | 0.00 | 89 | 1018.5 |
| 20260507024847 | 13 | 191 | 4.8 | 11.3 | 0.00 | 0.00 | 0.00 | 89 | 1018.4 |
| 20260507024344 | 13 | 242 | 3.2 | 11.3 | 0.00 | 0.00 | 0.00 | 88 | 1018.3 |
| 20260507023839 | 13 | 230 | 6.4 | 9.7 | 0.00 | 0.00 | 0.00 | 88 | 1018.4 |
| 20260507023336 | 13 | 266 | 6.4 | 11.3 | 0.00 | 0.00 | 0.00 | 87 | 1018.4 |
| 20260507022834 | 13 | 208 | 6.4 | 11.3 | 0.00 | 0.00 | 0.00 | 87 | 1018.3 |
| 20260507022330 | 13 | 257 | 4.8 | 11.3 | 0.00 | 0.00 | 0.00 | 86 | 1018.2 |
| 20260507021826 | 13 | 272 | 4.8 | 9.7 | 0.00 | 0.00 | 0.00 | 86 | 1018.3 |
| 20260507021321 | 14 | 200 | 3.2 | 11.3 | 0.00 | 0.00 | 0.00 | 86 | 1018.0 |
| 20260507020820 | 14 | 302 | 3.2 | 11.3 | 0.00 | 0.00 | 0.00 | 85 | 1018.3 |
| 20260507020316 | 14 | 191 | 4.8 | 9.7 | 0.00 | 0.00 | 0.00 | 85 | 1018.3 |
| 20260507015814 | 15 | 154 | 3.2 | 9.7 | 0.00 | 0.00 | 0.00 | 84 | 1018.3 |
| 20260507015311 | 15 | 189 | 4.8 | 9.7 | 0.00 | 0.00 | 0.00 | 84 | 1018.3 |
| 20260507014808 | 15 | 223 | 1.6 | 9.7 | 0.00 | 0.00 | 0.00 | 84 | 1018.1 |
| 20260507014304 | 15 | 179 | 3.2 | 11.3 | 0.00 | 0.00 | 0.00 | 84 | 1018.5 |
| 20260507013800 | 15 | 191 | 4.8 | 11.3 | 0.00 | 0.00 | 0.00 | 83 | 1018.3 |
| 20260507013258 | 15 | 268 | 3.2 | 11.3 | 0.00 | 0.00 | 0.00 | 83 | 1018.1 |
| 20260507012755 | 15 | 324 | 6.4 | 11.3 | 0.00 | 0.00 | 0.00 | 83 | 1018.0 |
| 20260507012251 | 15 | 239 | 3.2 | 9.7 | 0.00 | 0.00 | 0.00 | 82 | 1018.3 |
| 20260507011749 | 15 | 171 | 4.8 | 12.9 | 0.00 | 0.00 | 0.00 | 82 | 1018.2 |
| 20260507011245 | 15 | 192 | 3.2 | 4.8 | 0.00 | 0.00 | 0.00 | 82 | 1018.2 |
| 20260507010744 | 16 | 318 | 4.8 | 6.4 | 0.00 | 0.00 | 0.00 | 82 | 1018.4 |
| 20260507010241 | 16 | 109 | 6.4 | 11.3 | 0.00 | 0.00 | 0.00 | 81 | 1018.1 |
| 20260507005738 | 16 | 218 | 3.2 | 9.7 | 0.00 | 0.00 | 0.00 | 82 | 1018.2 |
| 20260507005235 | 16 | 254 | 6.4 | 9.7 | 0.00 | 0.00 | 0.00 | 82 | 1018.5 |
| 20260507004731 | 16 | 197 | 8.0 | 14.5 | 0.00 | 0.00 | 0.00 | 82 | 1018.2 |
| 20260507004229 | 16 | 244 | 4.8 | 17.7 | 0.00 | 0.00 | 0.00 | 81 | 1018.1 |
| 20260507003725 | 16 | 204 | 3.2 | 6.4 | 0.00 | 0.00 | 0.00 | 81 | 1018.3 |
| 20260507003220 | 16 | 289 | 4.8 | 12.9 | 0.00 | 0.00 | 0.00 | 81 | 1018.2 |
| 20260507002716 | 16 | 279 | 11.3 | 14.5 | 0.00 | 0.00 | 0.00 | 80 | 1018.3 |
| 20260507002213 | 16 | 239 | 8.0 | 12.9 | 0.00 | 0.00 | 0.00 | 81 | 1018.3 |
| 20260507001710 | 16 | 193 | 4.8 | 12.9 | 0.00 | 0.00 | 0.00 | 80 | 1018.3 |
| 20260507001207 | 16 | 243 | 6.4 | 11.3 | 0.00 | 0.00 | 0.00 | 80 | 1018.4 |
| 20260507000703 | 16 | 199 | 4.8 | 12.9 | 0.00 | 0.00 | 0.00 | 80 | 1018.4 |
| 20260507000159 | 16 | 266 | 3.2 | 11.3 | 0.00 | 0.00 | 0.00 | 80 | 1018.4 |
| 20260506235656 | 17 | 332 | 6.4 | 14.5 | 0.00 | 0.00 | 0.00 | 80 | 1018.2 |
| 20260506235151 | 17 | 217 | 4.8 | 12.9 | 0.00 | 0.00 | 0.00 | 80 | 1018.7 |
| 20260506234649 | 17 | 201 | 3.2 | 11.3 | 0.00 | 0.00 | 0.00 | 80 | 1018.5 |
| 20260506234146 | 17 | 206 | 4.8 | 12.9 | 0.00 | 0.00 | 0.00 | 80 | 1018.4 |
| 20260506233643 | 17 | 186 | 4.8 | 11.3 | 0.00 | 0.00 | 0.00 | 80 | 1018.2 |
| 20260506233140 | 17 | 175 | 6.4 | 12.9 | 0.00 | 0.00 | 0.00 | 80 | 1018.3 |
| 20260506232636 | 17 | 217 | 4.8 | 16.1 | 0.00 | 0.00 | 0.00 | 79 | 1018.6 |
| 20260506232131 | 17 | 243 | 8.0 | 12.9 | 0.00 | 0.00 | 0.00 | 79 | 1018.4 |
| 20260506231629 | 17 | 221 | 3.2 | 11.3 | 0.00 | 0.00 | 0.00 | 79 | 1018.5 |
| 20260506231127 | 17 | 265 | 4.8 | 11.3 | 0.00 | 0.00 | 0.00 | 79 | 1018.6 |
| 20260506230624 | 17 | 263 | 4.8 | 9.7 | 0.00 | 0.00 | 0.00 | 79 | 1018.6 |
| 20260506230121 | 17 | 169 | 3.2 | 6.4 | 0.00 | 0.00 | 0.00 | 79 | 1018.8 |
| 20260506225617 | 17 | 193 | 6.4 | 11.3 | 0.00 | 0.00 | 0.00 | 79 | 1018.9 |
| 20260506225114 | 17 | 194 | 3.2 | 9.7 | 0.00 | 0.00 | 0.00 | 78 | 1018.7 |
| 20260506224610 | 18 | 129 | 1.6 | 9.7 | 0.00 | 0.00 | 0.00 | 77 | 1019.0 |
| 20260506224107 | 17 | 153 | 1.6 | 9.7 | 0.00 | 0.00 | 0.00 | 78 | 1019.0 |
| 20260506223603 | 18 | 195 | 6.4 | 12.9 | 0.00 | 0.00 | 0.00 | 77 | 1019.2 |
| 20260506223059 | 18 | 202 | 6.4 | 11.3 | 0.00 | 0.00 | 0.00 | 77 | 1019.0 |
| 20260506222556 | 18 | 213 | 3.2 | 11.3 | 0.00 | 0.00 | 0.00 | 77 | 1019.1 |
| 20260506222052 | 18 | 220 | 6.4 | 9.7 | 0.00 | 0.00 | 0.00 | 77 | 1019.3 |
| 20260506221550 | 18 | 309 | 4.8 | 12.9 | 0.00 | 0.00 | 0.00 | 77 | 1019.3 |
| 20260506221048 | 18 | 304 | 4.8 | 6.4 | 0.00 | 0.00 | 0.00 | 75 | 1019.3 |
| 20260506220544 | 18 | 254 | 1.6 | 9.7 | 0.00 | 0.00 | 0.00 | 74 | 1019.3 |
| 20260506220039 | 18 | 128 | 1.6 | 11.3 | 0.00 | 0.00 | 0.00 | 75 | 1019.4 |
| 20260506215537 | 18 | 250 | 3.2 | 6.4 | 0.00 | 0.00 | 0.00 | 75 | 1019.4 |
| 20260506215032 | 19 | 247 | 6.4 | 9.7 | 0.00 | 0.00 | 0.00 | 74 | 1019.7 |
| 20260506214529 | 19 | 188 | 3.2 | 4.8 | 0.00 | 0.00 | 0.00 | 74 | 1019.5 |
| 20260506214026 | 18 | 254 | 3.2 | 12.9 | 0.00 | 0.00 | 0.00 | 75 | 1019.6 |
| 20260506213525 | 19 | 280 | 4.8 | 11.3 | 0.00 | 0.00 | 0.00 | 74 | 1019.8 |
| 20260506213022 | 19 | 98 | 1.6 | 11.3 | 0.00 | 0.00 | 0.00 | 74 | 1019.7 |
| 20260506212518 | 19 | 335 | 3.2 | 6.4 | 0.00 | 0.00 | 0.00 | 74 | 1019.7 |
| 20260506212013 | 19 | 243 | 3.2 | 9.7 | 0.00 | 0.00 | 0.00 | 74 | 1019.9 |
| 20260506211509 | 20 | 209 | 4.8 | 6.4 | 0.00 | 0.00 | 0.00 | 73 | 1019.6 |
| 20260506211007 | 20 | 103 | 3.2 | 6.4 | 0.00 | 0.00 | 0.00 | 73 | 1019.6 |
| 20260506210503 | 20 | 211 | 4.8 | 4.8 | 0.00 | 0.00 | 0.00 | 73 | 1019.5 |
| 20260506205959 | 20 | 158 | 6.4 | 9.7 | 0.00 | 0.00 | 0.00 | 71 | 1019.7 |
| 20260506205455 | 20 | 190 | 3.2 | 4.8 | 0.00 | 0.00 | 0.00 | 71 | 1019.8 |
| 20260506204946 | 20 | 234 | 3.2 | 11.3 | 0.00 | 0.00 | 0.00 | 72 | 1019.8 |
| 20260506204444 | 20 | 230 | 3.2 | 6.4 | 0.00 | 0.00 | 0.00 | 73 | 1020.0 |
| 20260506203941 | 20 | 221 | 3.2 | 4.8 | 0.00 | 0.00 | 0.00 | 71 | 1020.1 |
| 20260506203438 | 20 | 201 | 3.2 | 6.4 | 0.00 | 0.00 | 0.00 | 71 | 1019.9 |
| 20260506202935 | 20 | 181 | 3.2 | 9.7 | 0.00 | 0.00 | 0.00 | 71 | 1020.0 |
| 20260506202432 | 20 | 228 | 1.6 | 4.8 | 0.00 | 0.00 | 0.00 | 70 | 1020.1 |
| 20260506201929 | 20 | 174 | 1.6 | 6.4 | 0.00 | 0.00 | 0.00 | 71 | 1020.2 |
| 20260506201426 | 20 | 238 | 3.2 | 4.8 | 0.00 | 0.00 | 0.00 | 71 | 1020.3 |
| 20260506200917 | 21 | 204 | 1.6 | 6.4 | 0.00 | 0.00 | 0.00 | 70 | 1020.1 |
| 20260506200413 | 20 | 207 | 3.2 | 6.4 | 0.00 | 0.00 | 0.00 | 71 | 1020.1 |
| 20260506195910 | 21 | 258 | 1.6 | 6.4 | 0.00 | 0.00 | 0.00 | 69 | 1020.4 |
| 20260506195407 | 21 | 244 | 3.2 | 4.8 | 0.00 | 0.00 | 0.00 | 68 | 1020.3 |
| 20260506194904 | 21 | 175 | 1.6 | 6.4 | 0.00 | 0.00 | 0.00 | 70 | 1020.4 |
| 20260506194401 | 21 | 212 | 4.8 | 6.4 | 0.00 | 0.00 | 0.00 | 68 | 1020.5 |
| 20260506193858 | 20 | 187 | 1.6 | 3.2 | 0.00 | 0.00 | 0.00 | 70 | 1020.5 |
| 20260506193354 | 20 | 194 | 3.2 | 4.8 | 0.00 | 0.00 | 0.00 | 70 | 1020.5 |
| 20260506192851 | 21 | 188 | 1.6 | 3.2 | 0.00 | 0.00 | 0.00 | 70 | 1020.6 |
| 20260506192348 | 21 | 150 | 3.2 | 3.2 | 0.00 | 0.00 | 0.00 | 69 | 1020.7 |
| 20260506191845 | 21 | 249 | 3.2 | 3.2 | 0.00 | 0.00 | 0.00 | 68 | 1020.8 |
| 20260506191341 | 21 | 161 | 1.6 | 3.2 | 0.00 | 0.00 | 0.00 | 68 | 1020.8 |
| 20260506190838 | 21 | 189 | 1.6 | 4.8 | 0.00 | 0.00 | 0.00 | 68 | 1020.9 |
| 20260506190334 | 21 | 262 | 1.6 | 4.8 | 0.00 | 0.00 | 0.00 | 68 | 1020.7 |
| 20260506185831 | 21 | 207 | 1.6 | 3.2 | 0.00 | 0.00 | 0.00 | 69 | 1020.7 |
| 20260506185328 | 21 | 248 | 1.6 | 3.2 | 0.00 | 0.00 | 0.00 | 69 | 1020.9 |
| 20260506184825 | 20 | 167 | 1.6 | 3.2 | 0.00 | 0.00 | 0.00 | 70 | 1020.7 |
| 20260506184323 | 20 | 348 | 0.0 | 9.7 | 0.00 | 0.00 | 0.00 | 69 | 1020.7 |
| 20260506183820 | 20 | 159 | 3.2 | 4.8 | 0.00 | 0.00 | 0.00 | 70 | 1020.7 |
| 20260506183315 | 20 | 207 | 1.6 | 4.8 | 0.00 | 0.00 | 0.00 | 70 | 1020.7 |
| 20260506182813 | 20 | 187 | 1.6 | 4.8 | 0.00 | 0.00 | 0.00 | 70 | 1020.9 |
| 20260506182310 | 20 | 248 | 1.6 | 6.4 | 0.00 | 0.00 | 0.00 | 70 | 1020.8 |
| 20260506181808 | 20 | 189 | 1.6 | 3.2 | 0.00 | 0.00 | 0.00 | 72 | 1020.7 |
| 20260506181305 | 20 | 170 | 1.6 | 4.8 | 0.00 | 0.00 | 0.00 | 72 | 1020.9 |
| 20260506180802 | 18 | 169 | 0.0 | 3.2 | 0.00 | 0.00 | 0.00 | 73 | 1020.8 |
| 20260506180257 | 19 | 172 | 0.0 | 3.2 | 0.00 | 0.00 | 0.00 | 72 | 1020.5 |
| 20260506175754 | 19 | 206 | 1.6 | 3.2 | 0.00 | 0.00 | 0.00 | 71 | 1020.7 |
| 20260506175251 | 20 | 163 | 1.6 | 1.6 | 0.00 | 0.00 | 0.00 | 69 | 1020.6 |
| 20260506174748 | 20 | 182 | 1.6 | 3.2 | 0.00 | 0.00 | 0.00 | 69 | 1020.6 |
| 20260506174245 | 20 | 159 | 3.2 | 4.8 | 0.00 | 0.00 | 0.00 | 69 | 1020.8 |
| 20260506173743 | 20 | 328 | 1.6 | 4.8 | 0.00 | 0.00 | 0.00 | 69 | 1020.6 |
| 20260506173240 | 19 | 59 | 1.6 | 3.2 | 0.00 | 0.00 | 0.00 | 71 | 1020.7 |
| 20260506172737 | 20 | 144 | 1.6 | 3.2 | 0.00 | 0.00 | 0.00 | 69 | 1020.8 |
| 20260506172233 | 20 | 149 | 0.0 | 1.6 | 0.00 | 0.00 | 0.00 | 69 | 1020.6 |
| 20260506171731 | 19 | 150 | 1.6 | 1.6 | 0.00 | 0.00 | 0.00 | 71 | 1020.7 |
| 20260506171228 | 19 | 139 | 1.6 | 1.6 | 0.00 | 0.00 | 0.00 | 71 | 1020.9 |
| 20260506170726 | 20 | 22 | 4.8 | 6.4 | 0.00 | 0.00 | 0.00 | 68 | 1021.0 |
| 20260506170222 | 20 | 142 | 1.6 | 4.8 | 0.00 | 0.00 | 0.00 | 70 | 1020.7 |
| 20260506165720 | 20 | 137 | 1.6 | 3.2 | 0.00 | 0.00 | 0.00 | 72 | 1020.8 |
| 20260506165217 | 19 | 140 | 0.0 | 1.6 | 0.00 | 0.00 | 0.00 | 71 | 1020.8 |
| 20260506164714 | 18 | 145 | 1.6 | 3.2 | 0.00 | 0.00 | 0.00 | 74 | 1020.7 |
| 20260506164211 | 18 | 143 | 1.6 | 3.2 | 0.00 | 0.00 | 0.00 | 73 | 1020.6 |
| 20260506163708 | 18 | 140 | 1.6 | 1.6 | 0.00 | 0.00 | 0.00 | 73 | 1020.7 |
| 20260506163203 | 18 | 143 | 1.6 | 1.6 | 0.00 | 0.00 | 0.00 | 74 | 1020.9 |
| 20260506162659 | 17 | 141 | 0.0 | 1.6 | 0.00 | 0.00 | 0.00 | 74 | 1021.0 |
| 20260506162157 | 17 | 142 | 0.0 | 1.6 | 0.00 | 0.00 | 0.00 | 74 | 1020.8 |
| 20260506161654 | 18 | 149 | 1.6 | 3.2 | 0.00 | 0.00 | 0.00 | 72 | 1020.8 |
| 20260506161150 | 18 | 142 | 1.6 | 3.2 | 0.00 | 0.00 | 0.00 | 73 | 1020.7 |
| 20260506160648 | 17 | 136 | 0.0 | 1.6 | 0.00 | 0.00 | 0.00 | 75 | 1020.8 |
| 20260506160145 | 16 | 138 | 0.0 | 1.6 | 0.00 | 0.00 | 0.00 | 75 | 1020.7 |
| 20260506155643 | 16 | 142 | 1.6 | 1.6 | 0.00 | 0.00 | 0.00 | 77 | 1020.8 |
| 20260506155140 | 17 | 140 | 0.0 | 1.6 | 0.00 | 0.00 | 0.00 | 75 | 1020.7 |
| 20260506153242 | 16 | 139 | 1.6 | 1.6 | 0.00 | 0.00 | 0.00 | 76 | 1020.9 |
| 20260506152739 | 16 | 139 | 0.0 | 0.0 | 0.00 | 0.00 | 0.00 | 76 | 1021.0 |
| 20260506152237 | 16 | 139 | 0.0 | 0.0 | 0.00 | 0.00 | 0.00 | 77 | 1020.8 |
| 20260506151735 | 16 | 137 | 0.0 | 1.6 | 0.00 | 0.00 | 0.00 | 78 | 1020.8 |
| 20260506151232 | 15 | 150 | 1.6 | 3.2 | 0.00 | 0.00 | 0.00 | 79 | 1020.8 |
| 20260506150728 | 15 | 141 | 1.6 | 3.2 | 0.00 | 0.00 | 0.00 | 79 | 1020.7 |
| 20260506150225 | 15 | 139 | 0.0 | 1.6 | 0.00 | 0.00 | 0.00 | 81 | 1020.7 |
| 20260506145722 | 15 | 136 | 0.0 | 1.6 | 0.00 | 0.00 | 0.00 | 81 | 1020.7 |
| 20260506145219 | 15 | 135 | 0.0 | 3.2 | 0.00 | 0.00 | 0.00 | 81 | 1020.7 |
| 20260506144716 | 15 | 145 | 1.6 | 3.2 | 0.00 | 0.00 | 0.00 | 82 | 1020.6 |
| 20260506144213 | 15 | 154 | 0.0 | 1.6 | 0.00 | 0.00 | 0.00 | 82 | 1020.5 |
| 20260506143711 | 14 | 142 | 0.0 | 1.6 | 0.00 | 0.00 | 0.00 | 83 | 1020.6 |
| 20260506143208 | 13 | 137 | 0.0 | 3.2 | 0.00 | 0.00 | 0.00 | 85 | 1020.5 |
| 20260506142707 | 13 | 143 | 0.0 | 1.6 | 0.00 | 0.00 | 0.00 | 86 | 1020.7 |
| 20260506142204 | 13 | 153 | 1.6 | 1.6 | 0.00 | 0.00 | 0.00 | 86 | 1020.4 |
| 20260506141702 | 13 | 144 | 1.6 | 1.6 | 0.00 | 0.00 | 0.00 | 87 | 1020.6 |
| 20260506141200 | 12 | 141 | 0.0 | 0.0 | 0.00 | 0.00 | 0.00 | 88 | 1020.3 |
| 20260506140657 | 12 | 144 | 0.0 | 1.6 | 0.00 | 0.00 | 0.00 | 89 | 1020.1 |
| 20260506140154 | 12 | 142 | 0.0 | 0.0 | 0.00 | 0.00 | 0.00 | 89 | 1020.2 |
| 20260506135651 | 12 | 142 | 0.0 | 0.0 | 0.00 | 0.00 | 0.00 | 89 | 1020.3 |
| 20260506135147 | 12 | 143 | 0.0 | 1.6 | 0.00 | 0.00 | 0.00 | 89 | 1020.3 |
| 20260506134644 | 12 | 141 | 0.0 | 0.0 | 0.00 | 0.00 | 0.00 | 90 | 1020.4 |
| 20260506134140 | 12 | 143 | 0.0 | 0.0 | 0.00 | 0.00 | 0.00 | 90 | 1020.1 |
| 20260506133637 | 12 | 142 | 0.0 | 0.0 | 0.00 | 0.00 | 0.00 | 90 | 1019.8 |
| 20260506133134 | 12 | 142 | 0.0 | 0.0 | 0.00 | 0.00 | 0.00 | 90 | 1020.1 |
| 20260506132632 | 12 | 141 | 0.0 | 0.0 | 0.00 | 0.00 | 0.00 | 90 | 1020.0 |
| 20260506132128 | 12 | 143 | 0.0 | 0.0 | 0.00 | 0.00 | 0.00 | 90 | 1019.9 |
| 20260506131626 | 12 | 142 | 0.0 | 0.0 | 0.00 | 0.00 | 0.00 | 89 | 1020.0 |
| 20260506131122 | 12 | 143 | 0.0 | 0.0 | 0.00 | 0.00 | 0.00 | 89 | 1019.7 |
| 20260506130619 | 12 | 141 | 0.0 | 1.6 | 0.00 | 0.00 | 0.00 | 89 | 1019.9 |
| 20260506130116 | 12 | 148 | 0.0 | 1.6 | 0.00 | 0.00 | 0.00 | 89 | 1019.9 |
| 20260506125615 | 12 | 141 | 0.0 | 1.6 | 0.00 | 0.00 | 0.00 | 89 | 1020.0 |
| 20260506125112 | 12 | 141 | 0.0 | 1.6 | 0.00 | 0.00 | 0.00 | 89 | 1019.9 |
| 20260506124609 | 12 | 141 | 0.0 | 0.0 | 0.00 | 0.00 | 0.00 | 89 | 1019.8 |
| 20260506124107 | 12 | 141 | 0.0 | 0.0 | 0.00 | 0.00 | 0.00 | 89 | 1019.7 |
| 20260506123604 | 12 | 144 | 0.0 | 1.6 | 0.00 | 0.00 | 0.00 | 89 | 1019.6 |
| 20260506123103 | 12 | 141 | 0.0 | 1.6 | 0.00 | 0.00 | 0.00 | 89 | 1019.7 |
| 20260506122559 | 12 | 140 | 0.0 | 3.2 | 0.00 | 0.00 | 0.00 | 89 | 1019.7 |
| 20260506122057 | 12 | 143 | 0.0 | 1.6 | 0.00 | 0.00 | 0.00 | 90 | 1019.6 |
| 20260506121555 | 12 | 141 | 0.0 | 0.0 | 0.00 | 0.00 | 0.00 | 90 | 1019.7 |
| 20260506121051 | 12 | 142 | 0.0 | 1.6 | 0.00 | 0.00 | 0.00 | 90 | 1019.8 |
| 20260506120549 | 12 | 140 | 0.0 | 0.0 | 0.00 | 0.00 | 0.00 | 91 | 1019.7 |
| 20260506120046 | 12 | 142 | 0.0 | 0.0 | 0.00 | 0.00 | 0.00 | 91 | 1019.7 |
| 20260506115544 | 12 | 141 | 0.0 | 0.0 | 0.00 | 0.00 | 0.00 | 91 | 1019.6 |
| 20260506115042 | 12 | 142 | 0.0 | 0.0 | 0.00 | 0.00 | 0.00 | 92 | 1019.4 |
| 20260506114539 | 12 | 142 | 0.0 | 0.0 | 0.00 | 0.00 | 0.00 | 92 | 1019.6 |
| 20260506114037 | 11 | 141 | 0.0 | 0.0 | 0.00 | 0.00 | 0.00 | 92 | 1019.5 |
| 20260506113535 | 11 | 141 | 0.0 | 0.0 | 0.00 | 0.00 | 0.00 | 92 | 1019.3 |
| 20260506113032 | 11 | 141 | 0.0 | 0.0 | 0.00 | 0.00 | 0.00 | 92 | 1019.4 |
| 20260506112528 | 11 | 141 | 0.0 | 0.0 | 0.00 | 0.00 | 0.00 | 92 | 1019.3 |
| 20260506112026 | 11 | 141 | 0.0 | 0.0 | 0.00 | 0.00 | 0.00 | 92 | 1019.4 |
| 20260506111524 | 11 | 140 | 0.0 | 0.0 | 0.00 | 0.00 | 0.00 | 92 | 1019.4 |
| 20260506111021 | 11 | 140 | 0.0 | 0.0 | 0.00 | 0.00 | 0.00 | 92 | 1019.2 |
| 20260506110519 | 11 | 139 | 0.0 | 0.0 | 0.00 | 0.00 | 0.00 | 92 | 1019.3 |
| 20260506110015 | 11 | 139 | 0.0 | 0.0 | 0.00 | 0.00 | 0.00 | 92 | 1019.3 |
| 20260506105511 | 11 | 138 | 0.0 | 0.0 | 0.00 | 0.00 | 0.00 | 92 | 1019.2 |
| 20260506105009 | 11 | 142 | 0.0 | 0.0 | 0.00 | 0.00 | 0.00 | 92 | 1019.3 |
| 20260506104507 | 11 | 142 | 0.0 | 0.0 | 0.00 | 0.00 | 0.00 | 92 | 1019.0 |
| 20260506104005 | 12 | 138 | 0.0 | 0.0 | 0.00 | 0.00 | 0.00 | 92 | 1019.1 |
| 20260506103501 | 12 | 143 | 0.0 | 0.0 | 0.00 | 0.00 | 0.00 | 92 | 1019.2 |
| 20260506102958 | 12 | 142 | 0.0 | 1.6 | 0.00 | 0.00 | 0.00 | 92 | 1019.1 |
| 20260506102456 | 12 | 145 | 1.6 | 1.6 | 0.00 | 0.00 | 0.00 | 92 | 1019.0 |
| 20260506101953 | 12 | 147 | 0.0 | 1.6 | 0.00 | 0.00 | 0.00 | 92 | 1019.0 |
| 20260506101450 | 12 | 145 | 0.0 | 0.0 | 0.00 | 0.00 | 0.00 | 92 | 1019.0 |
| 20260506100947 | 12 | 143 | 0.0 | 0.0 | 0.00 | 0.00 | 0.00 | 92 | 1019.0 |
| 20260506100446 | 12 | 143 | 0.0 | 0.0 | 0.00 | 0.00 | 0.00 | 92 | 1019.0 |
| 20260506095943 | 12 | 145 | 0.0 | 0.0 | 0.00 | 0.00 | 0.00 | 91 | 1019.1 |
| 20260506095442 | 12 | 144 | 0.0 | 0.0 | 0.00 | 0.00 | 0.00 | 91 | 1019.1 |
| 20260506094937 | 12 | 145 | 0.0 | 1.6 | 0.00 | 0.00 | 0.00 | 91 | 1019.2 |
| 20260506094436 | 12 | 145 | 0.0 | 1.6 | 0.00 | 0.00 | 0.00 | 91 | 1019.0 |
| 20260506093933 | 12 | 145 | 0.0 | 0.0 | 0.00 | 0.00 | 0.00 | 91 | 1019.0 |
| 20260506093431 | 12 | 146 | 0.0 | 1.6 | 0.00 | 0.00 | 0.00 | 91 | 1019.2 |
| 20260506092928 | 12 | 142 | 0.0 | 1.6 | 0.00 | 0.00 | 0.00 | 91 | 1018.8 |
| 20260506092426 | 12 | 145 | 0.0 | 1.6 | 0.00 | 0.00 | 0.00 | 91 | 1018.9 |
| 20260506091923 | 12 | 141 | 0.0 | 0.0 | 0.00 | 0.00 | 0.00 | 90 | 1018.9 |
| 20260506091421 | 12 | 142 | 0.0 | 1.6 | 0.00 | 0.00 | 0.00 | 90 | 1019.0 |
| 20260506090918 | 12 | 141 | 0.0 | 1.6 | 0.00 | 0.00 | 0.00 | 90 | 1019.1 |
| 20260506090415 | 12 | 142 | 0.0 | 0.0 | 0.00 | 0.00 | 0.00 | 90 | 1018.8 |
| 20260506085912 | 12 | 145 | 0.0 | 1.6 | 0.00 | 0.00 | 0.00 | 90 | 1019.0 |
| 20260506085409 | 12 | 144 | 0.0 | 1.6 | 0.00 | 0.00 | 0.00 | 90 | 1018.9 |
| 20260506084905 | 12 | 150 | 1.6 | 1.6 | 0.00 | 0.00 | 0.00 | 89 | 1019.0 |
| 20260506084402 | 12 | 147 | 1.6 | 3.2 | 0.00 | 0.00 | 0.00 | 89 | 1019.1 |
| 20260506083858 | 12 | 143 | 0.0 | 1.6 | 0.00 | 0.00 | 0.00 | 89 | 1019.1 |
| 20260506083356 | 12 | 153 | 0.0 | 3.2 | 0.00 | 0.00 | 0.00 | 89 | 1018.9 |
| 20260506082853 | 12 | 150 | 1.6 | 3.2 | 0.00 | 0.00 | 0.00 | 89 | 1019.0 |
| 20260506082349 | 12 | 144 | 0.0 | 4.8 | 0.00 | 0.00 | 0.00 | 89 | 1019.1 |
| 20260506081845 | 12 | 144 | 1.6 | 3.2 | 0.00 | 0.00 | 0.00 | 89 | 1019.0 |
| 20260506081343 | 12 | 143 | 0.0 | 3.2 | 0.00 | 0.00 | 0.00 | 89 | 1019.1 |
| 20260506080835 | 12 | 145 | 1.6 | 1.6 | 0.00 | 0.00 | 0.00 | 89 | 1019.0 |
| 20260506080331 | 12 | 144 | 0.0 | 3.2 | 0.00 | 0.00 | 0.00 | 89 | 1019.2 |
| 20260506073316 | 12 | 141 | 0.0 | 1.6 | 0.00 | 0.00 | 0.00 | 88 | 1018.8 |
| 20260506072812 | 12 | 155 | 0.0 | 3.2 | 0.00 | 0.00 | 0.00 | 88 | 1018.8 |
| 20260506072310 | 12 | 145 | 0.0 | 1.6 | 0.00 | 0.00 | 0.00 | 88 | 1018.9 |
| 20260506071808 | 12 | 145 | 0.0 | 1.6 | 0.00 | 0.00 | 0.00 | 88 | 1018.8 |
| 20260506071306 | 12 | 148 | 1.6 | 4.8 | 0.00 | 0.00 | 0.00 | 88 | 1018.6 |
| 20260506070802 | 12 | 143 | 1.6 | 3.2 | 0.00 | 0.00 | 0.00 | 88 | 1018.6 |
| 20260506070259 | 12 | 140 | 0.0 | 1.6 | 0.00 | 0.00 | 0.00 | 88 | 1018.8 |